Tracking 19706 objects as of 17-Jun-2019
HD Live streaming from Space Station
objects crossing your sky now

BREEZE-M DEB

Track BREEZE-M DEB now!


NORAD ID: 38187
Int'l Code: 2011-069D
Perigee: 11,866.7 km
Apogee: 34,247.1 km
Inclination: 2.0 °
Period: 837.3 minutes
Semi major axis: 29427 km
RCS: 0.003 m2 (small)
Launch date: November 25, 2011
Source: Commonwealth of Independent States (former USSR) (CIS)
Launch site: TYURATAM MISSILE AND SPACE COMPLEX (TTMTR)

Note: This is SATELLITE DEBRIS
aabbcc
Your satellite tracking list
Your tracking list is empty




NASA's NSSDC Master Catalog

Two Line Element Set (TLE):
1 38187U 11069D   19167.26416035 -.00000094 +00000-0 +00000-0 0  9999
2 38187 002.0158 340.4602 3802578 215.7375 111.8703 01.71974638045047
Source of the keplerian elements: AFSPC